Terminal Aerodrome Forecast
Issued by NWS Duluth, MN

Home | Current Version | Previous Version | Text Only | Print | Product List | Glossary On
Versions: 1 2 3 4 5 6 7 8 9 10 11 12 13 14 15 16 17 18 19 20 21 22 23 24 25 26 27 28 29 30
000
FTUS43 KDLH 191700
TAFINL
TAF
KINL 191731Z 1918/2018 20010G17KT P6SM VCSH OVC014
      TEMPO 1918/1922 4SM -TSRA BR SCT014CB OVC023CB
     FM192200 20008KT P6SM VCSH OVC015
     FM200100 VRB05KT 5SM BR VCTS OVC015CB
      TEMPO 2001/2005 4SM TSRA OVC010CB
     FM200700 28007KT 6SM BR OVC015
     FM201400 28010KT P6SM SCT015=

USA.gov is the U.S. government's official web portal to all federal, state and local government web resources and services.